Back to catalog

CZ-3C DEB

AliveHEO
NORAD 48545·DEBRIS·🇨🇳 China

Launched Oct 31, 2010 from Xichang Satellite Launch Center

Loading…

Next Passes (next 24 hours)

TLE

FreshSource: Space-Track

Epoch: Sep 14, 2026, 02:34 UTC

1 48545U 10057BQ  26257.10738515  .00034032  00000-0  89764-2 0  9999
2 48545  18.0097 242.2782 5556447  17.5558 355.7644  4.69657032131446

Track CZ-3C DEB in real time with AllMySat

Download on the App Store